User: anonymous   Login
Location: Unspecified
(0.0000°N, 0.0000°E)
Time: 18:43:17
(UTC+00:00)
Language:

LEMUR 2 WINGO - Orbit

View from above orbital plane
View from above orbital plane
View from above satellite
View from above satellite

Ground track
Ground track

The orbit data is extracted from the following two-line orbital elements,

1 41874U 16062F   18350.56814683 +.00001285 +00000-0 +65283-4 0  9991
2 41874 051.6608 003.2342 0013051 344.3932 015.6642 15.24486979114368
Epoch (UTC): 16 December 2018 13:38:07
Eccentricity: 0.0013051
inclination: 51.6608°
perigee height: 483 km
apogee height: 501 km
right ascension of ascending node: 3.2342°
argument of perigee: 344.3932°
revolutions per day: 15.24486979
mean anomaly at epoch: 15.6642°
orbit number at epoch: 11436

The dashed part of the orbit path shows where the satellite is in the earth's shadow,  

DLR